Aérodrome :
LOGIN :

S'inscrire | Disclaimer

   EN    FR    IT 

 










Légende :    VFR   VFR Marginal   IFR   IFR Intensif   IFR Très Intensif
Visi : 
Plafond : 
>= 8 km
>= 3000ft
5 à 8 km
1000 à 3000 ft
1500m à 5 km
500 à 1000 ft
800 à 1500m
200 à 500 ft
< 800m
< 200 ft
Symboles :   Orages  Brouillard  Fortes neiges  Fortes précipitations  Vent > 20 kt
SIGMETs :   Divers  Orages  Givrage  Turbulence  Onde Orograph.  Cendres Volcan.







- Altitude de l'aérodrome : 24 ft
- Code IATA : FAO


LPFR - Faro

DERNIER METAR :
  • 230330Z 00000KT CAVOK 19/16 Q1014

METARs EXPIRÉS :
  • 230300Z VRB01KT CAVOK 19/16 Q1014
  • 230230Z 01003KT CAVOK 20/17 Q1014
  • 230200Z VRB02KT CAVOK 20/18 Q1014
  • 230130Z 10004KT CAVOK 21/17 Q1014
  • 230100Z 11006KT CAVOK 21/17 Q1014

TAF TAF LPFR
Valide du 23 à 00h jusqu'au 24 à 00h UTC


222300Z 2300/2324 VRB03KT CAVOK
BECMG 2310/2312 19007KT
BECMG 2313/2315 24010KT
BECMG 2317/2320 30008KT
Pas de NOTAMs connus pour ce terrain.



MET'MAP, la Météo Aéronautique d'un coup d'oeil ! - Copyright ORBIFLY Décembre 2007 - Disclaimer

ORBIFLY MET'MAP TEAM :

Programmation & Développement : Alexandra Zaïnal
Conception & Développement : Baudouin d'Aumeries
Co-Programmation & Développement : Marc-Olivier Méhu
Soutien technique & logistique : Manuel Goepfert

Contact : metmap@orbifly.com




SOURCES & CREDITS :

   NOAA